When you browse on this site, cookies collect data to enhance your experience and personalize the content and advertising you see.
Visit our Privacy Policy to learn more. By continuing to use the site, you agree to this use of cookies and data.
  • In United Kingdom
  • List of Countries
  • For 7 days
  • Water Temperature
  • Weather Map
  • Weather Widgets
  • user-avatar
    Login

    Hourly Weather Mazyr

    Today, 22 October, Tuesday

    Time Temperature Precipitation Wind Pressure Humidity
    00:00 +13°C° 0 mm 1 mps 751 mmHg 83%
    01:00 +13°C° 0 mm 1 mps 751 mmHg 84%
    02:00 +13°C° 0 mm 1 mps 752 mmHg 84%
    03:00 +12°C° 0 mm 0 mps 752 mmHg 85%
    04:00 +11°C° 0 mm 0 mps 752 mmHg 86%
    05:00 +11°C° 0 mm 0 mps 752 mmHg 87%
    06:00 +12°C° 0 mm 0 mps 752 mmHg 85%
    07:00 +12°C° 0 mm 0 mps 752 mmHg 83%
    08:00 +13°C° 0 mm 0 mps 753 mmHg 80%
    09:00 +14°C° 0 mm 0 mps 753 mmHg 74%
    10:00 +16°C° 0 mm 0 mps 753 mmHg 68%
    11:00 +17°C° 0 mm 0 mps 753 mmHg 62%
    12:00 +20°C° 0 mm 1 mps 753 mmHg 60%
    13:00 +20°C° 0 mm 1 mps 753 mmHg 58%
    14:00 +21°C° 0 mm 1 mps 753 mmHg 56%
    15:00 +20°C° 0 mm 1 mps 752 mmHg 61%
    16:00 +18°C° 0 mm 1 mps 752 mmHg 66%
    17:00 +16°C° 0 mm 1 mps 752 mmHg 72%
    18:00 +16°C° 0 mm 1 mps 752 mmHg 75%
    19:00 +15°C° 0 mm 1 mps 752 mmHg 77%
    20:00 +14°C° 0 mm 1 mps 752 mmHg 80%
    21:00 +14°C° 0 mm 1 mps 752 mmHg 82%
    22:00 +14°C° 0 mm 1 mps 752 mmHg 84%
    23:00 +13°C° 0 mm 1 mps 752 mmHg 85%

    Tomorrow, 23 October, Wednesday

    Time Temperature Precipitation Wind Pressure Humidity
    00:00 +13°C° 0 mm 2 mps 751 mmHg 87%
    01:00 +13°C° 0 mm 2 mps 751 mmHg 89%
    02:00 +13°C° 0 mm 2 mps 751 mmHg 90%
    03:00 +12°C° 0 mm 2 mps 751 mmHg 91%
    04:00 +12°C° 0 mm 2 mps 751 mmHg 92%
    05:00 +12°C° 0 mm 2 mps 751 mmHg 93%
    06:00 +12°C° 0 mm 2 mps 751 mmHg 92%
    07:00 +12°C° 0 mm 1 mps 751 mmHg 91%
    08:00 +13°C° 0 mm 1 mps 751 mmHg 91%
    09:00 +14°C° 0 mm 1 mps 751 mmHg 84%
    10:00 +16°C° 0 mm 2 mps 751 mmHg 76%
    11:00 +17°C° 0 mm 2 mps 751 mmHg 69%
    12:00 +18°C° 0 mm 2 mps 751 mmHg 66%
    13:00 +19°C° 0 mm 2 mps 750 mmHg 63%
    14:00 +20°C° 0 mm 2 mps 750 mmHg 59%
    15:00 +18°C° 0 mm 2 mps 750 mmHg 65%
    16:00 +18°C° 0 mm 1 mps 750 mmHg 71%
    17:00 +16°C° 0 mm 1 mps 750 mmHg 76%
    18:00 +15°C° 0 mm 1 mps 750 mmHg 80%
    19:00 +14°C° 0 mm 1 mps 750 mmHg 83%
    20:00 +14°C° 0 mm 1 mps 750 mmHg 86%
    21:00 +13°C° 0 mm 1 mps 750 mmHg 88%
    22:00 +13°C° 0 mm 1 mps 750 mmHg 89%
    23:00 +13°C° 0 mm 1 mps 750 mmHg 91%

    Day after tomorrow, 24 October, Thursday

    Time Temperature Precipitation Wind Pressure Humidity
    00:00 +12°C° 0 mm 1 mps 750 mmHg 91%
    01:00 +11°C° 0 mm 0 mps 750 mmHg 92%
    02:00 +11°C° 0 mm 0 mps 751 mmHg 92%
    03:00 +11°C° 0 mm 1 mps 750 mmHg 93%
    04:00 +11°C° 0 mm 1 mps 750 mmHg 94%
    05:00 +11°C° 0 mm 1 mps 750 mmHg 94%
    06:00 +11°C° 0 mm 1 mps 750 mmHg 94%
    07:00 +11°C° 0 mm 1 mps 750 mmHg 93%
    08:00 +12°C° 0 mm 1 mps 750 mmHg 92%
    09:00 +13°C° 0 mm 1 mps 750 mmHg 85%
    10:00 +15°C° 0 mm 1 mps 750 mmHg 78%
    11:00 +18°C° 0 mm 1 mps 751 mmHg 71%
    12:00 +18°C° 0 mm 1 mps 750 mmHg 68%
    13:00 +19°C° 0 mm 1 mps 750 mmHg 65%
    14:00 +20°C° 0 mm 1 mps 750 mmHg 62%
    15:00 +18°C° 0 mm 1 mps 750 mmHg 68%
    16:00 +16°C° 0 mm 2 mps 749 mmHg 73%
    17:00 +15°C° 0 mm 2 mps 749 mmHg 79%
    18:00 +14°C° 0 mm 2 mps 749 mmHg 82%
    19:00 +14°C° 0 mm 2 mps 749 mmHg 86%
    20:00 +13°C° 0 mm 2 mps 749 mmHg 89%
    21:00 +13°C° 0 mm 2 mps 750 mmHg 90%
    22:00 +12°C° 0 mm 2 mps 750 mmHg 91%
    23:00 +12°C° 0 mm 2 mps 750 mmHg 93%

    25 October, Friday

    Time Temperature Precipitation Wind Pressure Humidity
    00:00 +12°C° 0 mm 2 mps 750 mmHg 93%
    01:00 +10°C° 0 mm 2 mps 749 mmHg 94%
    02:00 +10°C° 0 mm 2 mps 749 mmHg 94%
    03:00 +10°C° 0 mm 2 mps 749 mmHg 94%
    04:00 +10°C° 0 mm 2 mps 749 mmHg 94%
    05:00 +10°C° 0 mm 2 mps 749 mmHg 95%
    06:00 +10°C° 0 mm 3 mps 749 mmHg 94%
    07:00 +10°C° 0 mm 3 mps 749 mmHg 93%
    08:00 +11°C° 0 mm 3 mps 749 mmHg 92%
    09:00 +12°C° 0 mm 3 mps 749 mmHg 83%
    10:00 +14°C° 0 mm 3 mps 749 mmHg 75%
    11:00 +17°C° 0 mm 4 mps 749 mmHg 67%
    12:00 +18°C° 0 mm 4 mps 749 mmHg 63%
    13:00 +19°C° 0 mm 4 mps 748 mmHg 59%
    14:00 +20°C° 0 mm 4 mps 748 mmHg 55%
    15:00 +18°C° 0 mm 3 mps 748 mmHg 60%
    16:00 +17°C° 0 mm 2 mps 748 mmHg 65%
    17:00 +15°C° 0 mm 2 mps 747 mmHg 70%
    18:00 +15°C° 0 mm 2 mps 748 mmHg 73%
    19:00 +14°C° 0 mm 2 mps 748 mmHg 77%
    20:00 +13°C° 0 mm 2 mps 748 mmHg 80%
    21:00 +13°C° 0 mm 2 mps 748 mmHg 83%
    22:00 +12°C° 0 mm 2 mps 748 mmHg 86%
    23:00 +12°C° 0 mm 2 mps 749 mmHg 88%

    26 October, Saturday

    Time Temperature Precipitation Wind Pressure Humidity
    00:00 +12°C° 0 mm 2 mps 749 mmHg 90%
    01:00 +10°C° 0 mm 2 mps 749 mmHg 92%
    02:00 +10°C° 0 mm 2 mps 749 mmHg 94%
    03:00 +10°C° 0 mm 2 mps 749 mmHg 94%
    04:00 +10°C° 0 mm 2 mps 749 mmHg 94%
    05:00 +9°C° 0 mm 2 mps 750 mmHg 94%
    06:00 +11°C° 0 mm 1 mps 750 mmHg 94%
    07:00 +11°C° 0 mm 1 mps 750 mmHg 93%
    08:00 +11°C° 0 mm 1 mps 750 mmHg 92%
    09:00 +13°C° 0 mm 1 mps 750 mmHg 85%
    10:00 +14°C° 0 mm 1 mps 750 mmHg 77%
    11:00 +16°C° 0 mm 1 mps 750 mmHg 70%
    12:00 +16°C° 0 mm 1 mps 749 mmHg 67%
    13:00 +17°C° 0 mm 2 mps 749 mmHg 64%
    14:00 +18°C° 0 mm 2 mps 748 mmHg 61%
    15:00 +16°C° 0 mm 2 mps 748 mmHg 67%
    16:00 +15°C° 0 mm 2 mps 747 mmHg 72%
    17:00 +14°C° 0 mm 2 mps 747 mmHg 78%
    18:00 +13°C° 0 mm 2 mps 747 mmHg 82%
    19:00 +13°C° 0 mm 2 mps 746 mmHg 85%
    20:00 +11°C° 0 mm 3 mps 746 mmHg 89%
    21:00 +11°C° 0 mm 3 mps 746 mmHg 90%
    22:00 +11°C° 0 mm 3 mps 746 mmHg 90%
    23:00 +11°C° 0 mm 3 mps 745 mmHg 91%

    27 October, Sunday

    Time Temperature Precipitation Wind Pressure Humidity
    00:00 +11°C° 0 mm 3 mps 745 mmHg 91%
    01:00 +11°C° 0 mm 3 mps 745 mmHg 90%
    02:00 +11°C° 0 mm 3 mps 745 mmHg 90%
    03:00 +10°C° 0 mm 3 mps 744 mmHg 91%
    04:00 +10°C° 0 mm 3 mps 744 mmHg 91%
    05:00 +10°C° 0 mm 3 mps 744 mmHg 91%
    06:00 +10°C° 0 mm 3 mps 744 mmHg 90%
    07:00 +10°C° 0 mm 3 mps 744 mmHg 89%
    08:00 +10°C° 0 mm 4 mps 744 mmHg 88%
    09:00 +12°C° 0 mm 4 mps 744 mmHg 82%
    10:00 +13°C° 0 mm 5 mps 744 mmHg 77%
    11:00 +14°C° 0 mm 5 mps 744 mmHg 72%
    12:00 +13°C° 0.1 mm 5 mps 744 mmHg 73%
    13:00 +13°C° 0.1 mm 6 mps 744 mmHg 74%
    14:00 +11°C° 0.1 mm 6 mps 744 mmHg 75%
    15:00 +10°C° 0.1 mm 6 mps 744 mmHg 72%
    16:00 +9°C° 0.1 mm 6 mps 745 mmHg 69%
    17:00 +8°C° 0.1 mm 5 mps 745 mmHg 65%
    18:00 +7°C° 0 mm 5 mps 745 mmHg 64%
    19:00 +6°C° 0 mm 5 mps 745 mmHg 62%
    20:00 +5°C° 0 mm 4 mps 746 mmHg 60%
    21:00 +5°C° 0 mm 4 mps 746 mmHg 60%
    22:00 +5°C° 0 mm 5 mps 746 mmHg 60%
    23:00 +5°C° 0 mm 5 mps 745 mmHg 61%

    28 October, Monday

    Time Temperature Precipitation Wind Pressure Humidity
    00:00 +3°C° 0 mm 5 mps 745 mmHg 64%
    01:00 +3°C° 0 mm 5 mps 745 mmHg 67%
    02:00 +3°C° 0 mm 5 mps 745 mmHg 71%
    03:00 +3°C° 0 mm 5 mps 745 mmHg 72%
    04:00 +3°C° 0 mm 5 mps 744 mmHg 74%
    05:00 +3°C° 0 mm 5 mps 744 mmHg 76%
    06:00 +3°C° 0 mm 5 mps 744 mmHg 76%
    07:00 +3°C° 0 mm 6 mps 744 mmHg 76%
    08:00 +3°C° 0 mm 6 mps 744 mmHg 76%
    09:00 +4°C° 0 mm 6 mps 744 mmHg 72%
    10:00 +5°C° 0 mm 6 mps 744 mmHg 67%
    11:00 +6°C° 0 mm 7 mps 744 mmHg 62%
    12:00 +8°C° 0.1 mm 7 mps 744 mmHg 60%
    13:00 +8°C° 0.1 mm 7 mps 744 mmHg 58%
    14:00 +8°C° 0.1 mm 7 mps 744 mmHg 56%
    15:00 +7°C° 0 mm 6 mps 743 mmHg 60%
    16:00 +6°C° 0 mm 5 mps 743 mmHg 64%
    17:00 +5°C° 0 mm 4 mps 743 mmHg 69%
    18:00 +5°C° 0.1 mm 4 mps 743 mmHg 72%
    19:00 +4°C° 0.1 mm 4 mps 743 mmHg 75%
    20:00 +4°C° 0.1 mm 3 mps 743 mmHg 78%
    21:00 +3°C° 0 mm 3 mps 743 mmHg 79%
    22:00 +3°C° 0 mm 4 mps 743 mmHg 81%
    23:00 +3°C° 0 mm 4 mps 743 mmHg 82%
    Show more